Weather History for Heber, UT

Change the Weather History Date:

Wednesday, January 9, 2013

  Actual Average (KPVU) Record (KPVU)
Temperature  
Mean Temperature 20 °F -  
Max Temperature 33 °F 34 °F 50 °F (1990)
Min Temperature 8 °F 21 °F 6 °F (1988)
Degree Days  
Heating Degree Days 44    
Moisture  
Dew Point 17 °F    
Average Humidity 79    
Maximum Humidity 100    
Minimum Humidity 60    
Precipitation  
Precipitation 0.00 in - - ()
Sea Level Pressure  
Sea Level Pressure 30.18 in    
Wind  
Wind Speed 1 mph (South)    
Max Wind Speed 6 mph    
Max Gust Speed -    
Visibility 6 miles    
Events Fog    
Averages and records for this station are not official NWS values.
T = Trace of Precipitation, MM = Missing Value Source: NWS Daily Summary

Daily Weather History Graph

Daily Weather History Graph

Search for Another Location

Airport:

Trip Planner

Search our weather history database for the weather conditions in past years. The results will help you decide how hot, cold, wet, or windy it might be!

Date:

Astronomy

Jan. 09, 2013 Rise Set
Actual Time 7:48 AM MST 5:17 PM MST
Civil Twilight 7:18 AM MST 5:47 PM MST
Nautical Twilight 6:44 AM MST 6:21 PM MST
Astronomical Twilight 6:11 AM MST 6:54 PM MST
Moon 5:31 AM MST (1/9) 3:23 PM MST (1/9)
Length of Visible Light 10h 29m
Length of Day
9h 28m
Waning Crescent, 6% of the Moon is Illuminated
Jan 9
Waning Crescent
Jan 11
New
Jan 18
First Quarter
Jan 26
Full
Feb 3
Last Quarter

Hourly Weather History & Observations

Time (MST) Temp. Windchill Dew Point Humidity Pressure Visibility Wind Dir Wind Speed Gust Speed Precip Events Conditions
12:15 AM 17.6 °F - 15.8 °F 93% 30.37 in 4.0 mi Calm Calm - N/A   Clear
12:35 AM 17.6 °F 10.7 °F 17.6 °F 100% 30.37 in 4.0 mi East 4.6 mph - N/A   Clear
12:55 AM 17.6 °F - 15.8 °F 93% 30.37 in 4.0 mi Calm Calm - N/A   Clear
1:15 AM 17.6 °F 12.3 °F 15.8 °F 93% 30.37 in 5.0 mi South 3.5 mph - N/A   Clear
1:35 AM 14.0 °F 8.2 °F 12.2 °F 93% 30.37 in 5.0 mi East 3.5 mph - N/A   Clear
1:55 AM 14.0 °F - 12.2 °F 93% 30.37 in 5.0 mi Calm Calm - N/A   Clear
2:15 AM 14.0 °F - 12.2 °F 93% 30.38 in 5.0 mi Calm Calm - N/A   Clear
2:35 AM 15.8 °F - 14.0 °F 93% 30.38 in 3.0 mi Calm Calm - N/A   Clear
2:55 AM 12.2 °F - 8.6 °F 85% 30.39 in 3.0 mi Calm Calm - N/A   Clear
3:15 AM 14.0 °F - 12.2 °F 93% 30.39 in 3.0 mi Calm Calm - N/A   Clear
3:35 AM 10.4 °F 4.0 °F 8.6 °F 92% 30.37 in 2.0 mi SSE 3.5 mph - N/A   Clear
3:55 AM 10.4 °F 2.2 °F 8.6 °F 92% 30.37 in 5.0 mi ESE 4.6 mph - N/A   Clear
4:15 AM 12.2 °F - 12.2 °F 100% 30.36 in 5.0 mi Calm Calm - N/A   Scattered Clouds
4:35 AM 10.4 °F - 8.6 °F 92% 30.36 in 0.2 mi Calm Calm - N/A Fog Light Freezing Fog
4:55 AM 10.4 °F - 8.6 °F 92% 30.36 in 0.2 mi Calm Calm - N/A Fog Light Freezing Fog
5:15 AM 12.2 °F - 10.4 °F 92% 30.35 in 0.2 mi Calm Calm - N/A Fog Light Freezing Fog
5:35 AM 12.2 °F - 10.4 °F 92% 30.34 in 0.5 mi Calm Calm - N/A Fog Light Freezing Fog
5:55 AM 12.2 °F - 8.6 °F 85% 30.33 in 0.2 mi Calm Calm - N/A Fog Light Freezing Fog
6:15 AM 12.2 °F - 8.6 °F 85% 30.33 in 0.2 mi Calm Calm - N/A Fog Light Freezing Fog
6:35 AM 10.4 °F - 8.6 °F 92% 30.33 in 0.2 mi Calm Calm - N/A Fog Light Freezing Fog
6:55 AM 8.6 °F - 5.0 °F 85% 30.32 in 1.2 mi Calm Calm - N/A   Overcast
7:15 AM 8.6 °F - 6.8 °F 92% 30.31 in 0.2 mi Calm Calm - N/A Fog Light Freezing Fog
7:35 AM 8.6 °F - 5.0 °F 85% 30.31 in 0.2 mi Calm Calm - N/A Fog Light Freezing Fog
7:55 AM 10.4 °F - 8.6 °F 92% 30.32 in 0.2 mi Calm Calm - N/A Fog Light Freezing Fog
8:15 AM 12.2 °F - 8.6 °F 85% 30.32 in 0.2 mi Calm Calm - N/A Fog Light Freezing Fog
8:35 AM 12.2 °F - 8.6 °F 85% 30.31 in 0.2 mi Calm Calm - N/A Fog Light Freezing Fog
8:55 AM 12.2 °F 4.3 °F 10.4 °F 92% 30.31 in 0.2 mi ESE 4.6 mph - N/A Fog Light Freezing Fog
9:15 AM 14.0 °F - 14.0 °F 100% 30.31 in 0.2 mi Calm Calm - N/A Fog Light Freezing Fog
9:35 AM 15.8 °F - 14.0 °F 93% 30.30 in 0.5 mi Calm Calm - N/A Fog Light Freezing Fog
10:15 AM 17.6 °F - 14.0 °F 86% 30.28 in 0.2 mi Calm Calm - N/A Fog Light Freezing Fog
10:35 AM 19.4 °F - 17.6 °F 93% 30.27 in 0.2 mi Calm Calm - N/A Fog Light Freezing Fog
11:15 AM 24.8 °F - 23.0 °F 93% 30.24 in 2.5 mi Calm Calm - N/A   Clear
11:35 AM 28.4 °F - 26.6 °F 93% 30.22 in 5.0 mi Calm Calm - N/A   Clear
11:55 AM 30.2 °F - 26.6 °F 86% 30.21 in 5.0 mi Calm Calm - N/A   Clear
12:15 PM 32.0 °F - 26.6 °F 80% 30.20 in 7.0 mi Calm Calm - N/A   Clear
12:35 PM 32.0 °F - 24.8 °F 75% 30.18 in 5.0 mi Calm Calm - N/A   Haze
12:55 PM 32.0 °F - 21.2 °F 64% 30.16 in 7.0 mi Calm Calm - N/A   Clear
1:15 PM 32.0 °F - 23.0 °F 69% 30.15 in 7.0 mi Calm Calm - N/A   Clear
1:35 PM 33.8 °F 30.8 °F 23.0 °F 65% 30.13 in 7.0 mi East 3.5 mph - N/A   Clear
1:55 PM 32.0 °F 28.7 °F 23.0 °F 69% 30.12 in 7.0 mi West 3.5 mph - N/A   Clear
2:15 PM 32.0 °F - 23.0 °F 69% 30.11 in 10.0 mi Calm Calm - N/A   Clear
2:35 PM 32.0 °F - 23.0 °F 69% 30.10 in 10.0 mi Calm Calm - N/A   Clear
2:55 PM 32.0 °F - 23.0 °F 69% 30.09 in 10.0 mi Calm Calm - N/A   Clear
3:15 PM 32.0 °F - 23.0 °F 69% 30.09 in 10.0 mi Calm Calm - N/A   Clear
3:35 PM 32.0 °F - 23.0 °F 69% 30.09 in 10.0 mi Calm Calm - N/A   Clear
3:55 PM 33.8 °F 30.8 °F 23.0 °F 65% 30.07 in 10.0 mi NW 3.5 mph - N/A   Clear
4:15 PM 32.0 °F - 23.0 °F 69% 30.07 in 10.0 mi Calm Calm - N/A   Clear
4:35 PM 32.0 °F - 23.0 °F 69% 30.06 in 10.0 mi Calm Calm - N/A   Clear
4:55 PM 30.2 °F - 23.0 °F 75% 30.05 in 10.0 mi Calm Calm - N/A   Clear
5:15 PM 32.0 °F - 23.0 °F 69% 30.05 in 10.0 mi Calm Calm - N/A   Clear
5:35 PM 32.0 °F - 23.0 °F 69% 30.04 in 10.0 mi Calm Calm - N/A   Clear
5:55 PM 32.0 °F - 23.0 °F 69% 30.03 in 10.0 mi Calm Calm - N/A   Clear
6:15 PM 32.0 °F 28.7 °F 21.2 °F 64% 30.03 in 10.0 mi North 3.5 mph - N/A   Clear
6:35 PM 30.2 °F 25.4 °F 21.2 °F 69% 30.02 in 10.0 mi SW 4.6 mph - N/A   Clear
6:55 PM 32.0 °F - 21.2 °F 64% 30.02 in 10.0 mi Calm Calm - N/A   Clear
7:15 PM 30.2 °F - 19.4 °F 64% 30.00 in 10.0 mi Calm Calm - N/A   Clear
7:35 PM 30.2 °F - 21.2 °F 69% 29.99 in 10.0 mi Calm Calm - N/A   Clear
7:55 PM 32.0 °F - 19.4 °F 60% 29.99 in 10.0 mi Calm Calm - N/A   Clear
8:15 PM 28.4 °F 23.3 °F 21.2 °F 74% 29.99 in 10.0 mi WSW 4.6 mph - N/A   Clear
8:35 PM 28.4 °F - 19.4 °F 69% 29.99 in 10.0 mi Calm Calm - N/A   Clear
8:55 PM 28.4 °F - 19.4 °F 69% 29.97 in 10.0 mi Calm Calm - N/A   Clear
9:15 PM 30.2 °F - 19.4 °F 64% 29.97 in 10.0 mi Calm Calm - N/A   Clear
9:35 PM 28.4 °F - 19.4 °F 69% 29.96 in 10.0 mi Calm Calm - N/A   Clear
9:55 PM 28.4 °F 24.6 °F 19.4 °F 69% 29.95 in 10.0 mi SE 3.5 mph - N/A   Clear
10:15 PM 28.4 °F - 21.2 °F 74% 29.95 in 10.0 mi Calm Calm - N/A   Clear
10:35 PM 30.2 °F - 19.4 °F 64% 29.94 in 10.0 mi Calm Calm - N/A   Clear
10:55 PM 30.2 °F - 19.4 °F 64% 29.93 in 10.0 mi Calm Calm - N/A   Clear
11:15 PM 30.2 °F 26.7 °F 21.2 °F 69% 29.91 in 10.0 mi West 3.5 mph - N/A   Clear
11:35 PM 30.2 °F 24.3 °F 21.2 °F 69% 29.90 in 10.0 mi West 5.8 mph - N/A   Clear
11:55 PM 32.0 °F 27.5 °F 21.2 °F 64% 29.89 in 10.0 mi WSW 4.6 mph - N/A   Clear